Regional Weather Roundup
Issued by NWS Goodland, KS

Home | Current Version | Previous Version | Graphics & Text | Print | Product List | Glossary On
Versions: 1 2 3 4 5 6 7 8 9 10 11 12 13 14 15 16 17 18 19 20 21 22 23 24 25 26 27 28 29 30 31 32 33 34 35 36 37 38 39 40 41 42 43 44 45 46 47 48 49 50
000
ASUS43 KGLD 281759
RWRGLD

GOODLAND FORECAST AREA HOURLY WEATHER ROUNDUP
NATIONAL WEATHER SERVICE GOODLAND KS
1200 PM MDT THU JUL 28 2016

...OFFICIAL OBSERVATIONS...

CITY           SKY/WX    TMP DP  RH WIND       PRES   REMARKS
GOODLAND KS    SUNNY     74  64  71 E12       30.11F
HILL CITY KS   PTSUNNY   84  65  52 CALM      30.08R
IMPERIAL NEB   CLOUDY    70  63  78 SE10      30.11F
MCCOOK NEB     CLOUDY    78  64  61 SE9       30.07F
AKRON CO       MOSUNNY   75  56  51 VRB5      30.20R
BURLINGTON CO  SUNNY     78  62  57 E14       30.13F
LIMON CO       SUNNY     84  55  36 SE8       30.17S
$$

...UNOFFICIAL OBSERVATIONS...

CITY           SKY/WX    TMP DP  RH WIND       PRES   REMARKS
COLBY KS       LGT RAIN  66  66 100 NE16      30.08S
LENORA KS        N/A     79  32  18 MISG        N/A
NORTON KS      MOSUNNY   82  61  47 SE6       30.09R
SHARON SPRINGS   N/A     78  63  60 E16G23      N/A
KIT CARSON CO    N/A     82  59  45 MISG        N/A
YUMA CO          N/A     74  63  69 E14         N/A
$$




USA.gov is the U.S. government's official web portal to all federal, state and local government web resources and services.